| time (UTC) | temp C | wind direction | speed KPH | gust KPH | rain 1hr cm | rain 24hr cm | rain mn cm | humidity % | barometer mb |
| 20260508121826 | 15 | 119 | 0.0 | 0.0 | 0.00 | 0.00 | 0.00 | 65 | 1004.1 |
| 20260508120325 | 13 | 113 | 3.2 | 4.8 | 0.00 | 0.00 | 0.00 | 68 | 1004.1 |
| 20260508114825 | 14 | 324 | 0.0 | 0.0 | 0.00 | 0.00 | 0.00 | 65 | 1004.1 |
| 20260508113326 | 15 | 302 | 0.0 | 0.0 | 0.00 | 0.00 | 0.00 | 63 | 1003.7 |
| 20260508111825 | 14 | 119 | 1.6 | 1.6 | 0.00 | 0.00 | 0.00 | 66 | 1004.1 |
| 20260508110326 | 15 | 106 | 0.0 | 0.0 | 0.00 | 0.00 | 0.00 | 61 | 1004.1 |
| 20260508104826 | 13 | 149 | 0.0 | 0.0 | 0.00 | 0.00 | 0.00 | 66 | 1004.1 |
| 20260508103325 | 13 | 96 | 1.6 | 1.6 | 0.00 | 0.00 | 0.00 | 63 | 1004.1 |
| 20260508101826 | 13 | 317 | 1.6 | 1.6 | 0.00 | 0.00 | 0.00 | 67 | 1004.4 |
| 20260508100325 | 13 | 316 | 1.6 | 1.6 | 0.00 | 0.00 | 0.00 | 66 | 1004.1 |
| 20260508094825 | 12 | 309 | 0.0 | 1.6 | 0.00 | 0.00 | 0.00 | 65 | 1003.7 |
| 20260508093325 | 13 | 324 | 0.0 | 0.0 | 0.00 | 0.00 | 0.00 | 64 | 1004.1 |
| 20260508091825 | 14 | 318 | 4.8 | 4.8 | 0.00 | 0.00 | 0.00 | 61 | 1003.7 |
| 20260508090325 | 15 | 355 | 1.6 | 1.6 | 0.00 | 0.00 | 0.00 | 61 | 1003.7 |
| 20260508084825 | 14 | 282 | 0.0 | 0.0 | 0.00 | 0.00 | 0.00 | 62 | 1003.7 |
| 20260508083325 | 15 | 144 | 0.0 | 1.6 | 0.00 | 0.00 | 0.00 | 59 | 1003.7 |
| 20260508081825 | 13 | 205 | 0.0 | 1.6 | 0.00 | 0.00 | 0.00 | 62 | 1003.7 |
| 20260508080326 | 12 | 308 | 0.0 | 0.0 | 0.00 | 0.00 | 0.00 | 65 | 1003.7 |
| 20260508074825 | 13 | 294 | 1.6 | 3.2 | 0.00 | 0.00 | 0.00 | 64 | 1003.7 |
| 20260508073326 | 13 | 309 | 1.6 | 1.6 | 0.00 | 0.00 | 0.00 | 64 | 1003.4 |
| 20260508071826 | 13 | 132 | 1.6 | 1.6 | 0.00 | 0.00 | 0.00 | 66 | 1003.7 |
| 20260508070326 | 12 | 187 | 0.0 | 1.6 | 0.00 | 0.00 | 0.00 | 74 | 1003.4 |
| 20260508064825 | 12 | 116 | 1.6 | 3.2 | 0.00 | 0.00 | 0.00 | 73 | 1003.4 |
| 20260508063326 | 10 | 129 | 1.6 | 1.6 | 0.00 | 0.00 | 0.00 | 79 | 1003.0 |
| 20260508061825 | 9 | 144 | 0.0 | 1.6 | 0.00 | 0.00 | 0.00 | 83 | 1003.0 |
| 20260508060325 | 8 | 113 | 1.6 | 3.2 | 0.00 | 0.00 | 0.00 | 85 | 1003.0 |
| 20260508054825 | 8 | 125 | 1.6 | 3.2 | 0.00 | 0.00 | 0.00 | 86 | 1002.7 |
| 20260508053325 | 8 | 125 | 0.0 | 0.0 | 0.00 | 0.00 | 0.00 | 87 | 1002.7 |
| 20260508051826 | 7 | 86 | 0.0 | 0.0 | 0.00 | 0.00 | 0.00 | 87 | 1002.7 |
| 20260508050325 | 7 | 90 | 0.0 | 0.0 | 0.00 | 0.00 | 0.00 | 86 | 1002.7 |
| 20260508044826 | 8 | 109 | 0.0 | 0.0 | 0.00 | 0.00 | 0.00 | 85 | 1002.7 |
| 20260508043326 | 7 | 125 | 1.6 | 1.6 | 0.00 | 0.00 | 0.00 | 86 | 1002.4 |
| 20260508041826 | 7 | 111 | 1.6 | 1.6 | 0.00 | 0.00 | 0.00 | 87 | 1002.4 |
| 20260508040326 | 7 | 100 | 0.0 | 0.0 | 0.00 | 0.00 | 0.00 | 87 | 1002.4 |
| 20260508034825 | 7 | 91 | 0.0 | 0.0 | 0.00 | 0.00 | 0.00 | 86 | 1002.4 |
| 20260508033326 | 7 | 113 | 1.6 | 1.6 | 0.00 | 0.00 | 0.00 | 86 | 1002.0 |
| 20260508031825 | 7 | 107 | 0.0 | 1.6 | 0.00 | 0.00 | 0.00 | 87 | 1002.4 |
| 20260508030326 | 7 | 92 | 0.0 | 0.0 | 0.00 | 0.00 | 0.00 | 87 | 1002.4 |
| 20260508024825 | 7 | 16 | 0.0 | 0.0 | 0.00 | 0.00 | 0.00 | 86 | 1002.4 |
| 20260508023330 | 8 | 16 | 0.0 | 0.0 | 0.00 | 0.00 | 0.00 | 86 | 1002.0 |
| 20260508021825 | 7 | 357 | 0.0 | 0.0 | 0.00 | 0.00 | 0.00 | 87 | 1002.4 |
| 20260508020326 | 7 | 357 | 0.0 | 0.0 | 0.00 | 0.00 | 0.00 | 88 | 1002.0 |
| 20260508014826 | 7 | 357 | 0.0 | 0.0 | 0.00 | 0.00 | 0.00 | 88 | 1002.0 |
| 20260508013327 | 7 | 357 | 0.0 | 0.0 | 0.00 | 0.00 | 0.00 | 88 | 1002.0 |
| 20260508011828 | 7 | 357 | 1.6 | 1.6 | 0.00 | 0.00 | 0.00 | 88 | 1002.0 |
| 20260508010325 | 7 | 22 | 0.0 | 0.0 | 0.00 | 0.00 | 0.00 | 88 | 1002.0 |
| 20260508004826 | 7 | 22 | 0.0 | 0.0 | 0.00 | 0.00 | 0.00 | 88 | 1002.0 |
| 20260508003326 | 7 | 22 | 0.0 | 0.0 | 0.00 | 0.00 | 0.00 | 87 | 1002.0 |
| 20260508001826 | 7 | 30 | 0.0 | 0.0 | 0.00 | 0.00 | 0.00 | 87 | 1002.0 |
| 20260507234824 | 7 | 126 | 0.0 | 1.6 | 0.00 | 0.00 | 0.00 | 84 | 1002.0 |
| 20260507233325 | 8 | 199 | 0.0 | 0.0 | 0.00 | 0.00 | 0.00 | 84 | 1002.0 |
| 20260507230324 | 8 | 196 | 1.6 | 1.6 | 0.00 | 0.00 | 0.00 | 84 | 1002.0 |
| 20260507224827 | 8 | 164 | 1.6 | 1.6 | 0.00 | 0.00 | 0.00 | 84 | 1002.0 |
| 20260507223326 | 8 | 157 | 0.0 | 0.0 | 0.00 | 0.00 | 0.00 | 83 | 1002.0 |
| 20260507221828 | 9 | 190 | 1.6 | 1.6 | 0.00 | 0.00 | 0.00 | 81 | 1001.7 |
| 20260507220326 | 9 | 188 | 1.6 | 3.2 | 0.00 | 0.00 | 0.00 | 80 | 1002.0 |
| 20260507213326 | 9 | 168 | 1.6 | 1.6 | 0.00 | 0.00 | 0.00 | 82 | 1002.0 |
| 20260507211826 | 9 | 181 | 3.2 | 3.2 | 0.00 | 0.00 | 0.00 | 83 | 1002.0 |
| 20260507210325 | 9 | 198 | 3.2 | 3.2 | 0.00 | 0.00 | 0.00 | 83 | 1002.0 |
| 20260507203326 | 10 | 166 | 3.2 | 6.4 | 0.00 | 0.00 | 0.00 | 79 | 1001.7 |
| 20260507201825 | 10 | 169 | 3.2 | 4.8 | 0.00 | 0.00 | 0.00 | 81 | 1001.4 |
| 20260507200325 | 10 | 165 | 1.6 | 1.6 | 0.00 | 0.00 | 0.00 | 78 | 1001.4 |
| 20260507194826 | 10 | 174 | 4.8 | 4.8 | 0.00 | 0.00 | 0.00 | 76 | 1001.4 |
| 20260507193328 | 10 | 145 | 0.0 | 0.0 | 0.00 | 0.00 | 0.00 | 72 | 1001.4 |
| 20260507191826 | 11 | 186 | 3.2 | 3.2 | 0.00 | 0.00 | 0.00 | 71 | 1001.4 |
| 20260507190328 | 11 | 162 | 0.0 | 0.0 | 0.00 | 0.00 | 0.00 | 73 | 1001.4 |
| 20260507184825 | 11 | 182 | 0.0 | 0.0 | 0.00 | 0.00 | 0.00 | 71 | 1001.0 |
| 20260507183329 | 12 | 189 | 0.0 | 1.6 | 0.00 | 0.00 | 0.00 | 67 | 1001.0 |
| 20260507181825 | 12 | 179 | 0.0 | 1.6 | 0.00 | 0.00 | 0.00 | 65 | 1000.7 |
| 20260507180326 | 12 | 199 | 0.0 | 0.0 | 0.00 | 0.00 | 0.00 | 66 | 1000.7 |
| 20260507174827 | 12 | 170 | 0.0 | 0.0 | 0.00 | 0.00 | 0.00 | 65 | 1001.0 |
| 20260507173326 | 12 | 179 | 0.0 | 0.0 | 0.00 | 0.00 | 0.00 | 65 | 1001.0 |
| 20260507171825 | 12 | 184 | 0.0 | 1.6 | 0.00 | 0.00 | 0.00 | 61 | 1001.0 |
| 20260507170328 | 13 | 145 | 1.6 | 1.6 | 0.00 | 0.00 | 0.00 | 60 | 1001.0 |
| 20260507164825 | 13 | 188 | 3.2 | 4.8 | 0.00 | 0.00 | 0.00 | 59 | 1001.0 |
| 20260507163325 | 13 | 198 | 3.2 | 3.2 | 0.00 | 0.00 | 0.00 | 58 | 1001.0 |
| 20260507161826 | 13 | 198 | 4.8 | 4.8 | 0.00 | 0.00 | 0.00 | 58 | 1001.0 |
| 20260507160328 | 13 | 136 | 0.0 | 1.6 | 0.00 | 0.00 | 0.00 | 57 | 1001.0 |
| 20260507154825 | 13 | 147 | 1.6 | 3.2 | 0.00 | 0.00 | 0.00 | 57 | 1001.0 |
| 20260507153324 | 13 | 170 | 3.2 | 3.2 | 0.00 | 0.00 | 0.00 | 58 | 1001.0 |
| 20260507151825 | 13 | 169 | 3.2 | 3.2 | 0.00 | 0.00 | 0.00 | 59 | 1001.4 |
| 20260507150324 | 13 | 147 | 1.6 | 3.2 | 0.00 | 0.00 | 0.00 | 58 | 1001.4 |
| 20260507144827 | 13 | 122 | 3.2 | 4.8 | 0.00 | 0.00 | 0.00 | 61 | 1001.4 |
| 20260507143327 | 13 | 172 | 3.2 | 9.7 | 0.00 | 0.00 | 0.00 | 60 | 1001.7 |
| 20260507141825 | 12 | 194 | 6.4 | 11.3 | 0.00 | 0.00 | 0.00 | 61 | 1002.0 |
| 20260507140325 | 12 | 191 | 6.4 | 6.4 | 0.00 | 0.00 | 0.00 | 63 | 1002.0 |
| 20260507134825 | 11 | 139 | 1.6 | 3.2 | 0.00 | 0.00 | 0.00 | 64 | 1002.0 |
| 20260507133325 | 11 | 137 | 3.2 | 3.2 | 0.00 | 0.00 | 0.00 | 65 | 1002.0 |
| 20260507131825 | 11 | 185 | 4.8 | 6.4 | 0.00 | 0.00 | 0.00 | 65 | 1002.0 |
| 20260507130327 | 10 | 163 | 3.2 | 4.8 | 0.00 | 0.00 | 0.00 | 65 | 1002.4 |
| 20260507124825 | 10 | 170 | 0.0 | 0.0 | 0.00 | 0.00 | 0.00 | 69 | 1002.4 |
| 20260507123326 | 10 | 122 | 1.6 | 3.2 | 0.00 | 0.00 | 0.00 | 72 | 1002.4 |